GW0464 Weather Reports


time (UTC)temp
F
wind
direction
speed
knots
gust
knots
rain 1hr
in
rain 24hr
in
rain mn
in
humidity
%
barometer
mb
20260504044557 77 216 3.5 6.1 0.00 0.25 0.25 100 1015.2
20260504043058 77 218 1.7 6.1 0.00 0.25 0.25 100 1015.3
20260504041600 77 225 2.6 4.3 0.00 0.25 0.25 100 1015.2
20260504040052 77 236 1.7 7.0 0.00 0.25 0.25 100 1015.1
20260504034559 77 251 1.7 7.0 0.00 0.25 0.25 100 1015.1
20260504033059 77 229 3.5 5.2 0.00 0.25 0.25 100 1015.0
20260504031605 77 209 2.6 6.1 0.00 0.25 0.25 100 1015.0
20260504030112 77 192 1.7 5.2 0.00 0.25 0.25 100 1014.7
20260504024552 77 99 2.6 6.1 0.00 0.25 0.25 100 1014.5
20260504023055 78 282 3.5 7.8 0.00 0.25 0.25 100 1014.6
20260504021600 78 202 5.2 8.7 0.00 0.25 0.25 100 1014.5
20260504020052 78 203 3.5 7.8 0.00 0.25 0.25 100 1014.4
20260504014549 78 229 2.6 7.0 0.00 0.25 0.25 100 1014.1
20260504013049 78 220 3.5 6.1 0.00 0.25 0.25 100 1014.0
20260504011545 78 208 4.3 6.1 0.00 0.25 0.25 100 1013.8
20260504010051 78 198 2.6 4.3 0.00 0.25 0.25 100 1013.7
20260504004549 78 215 3.5 7.0 0.00 0.25 0.25 100 1013.5
20260504003050 78 198 3.5 7.0 0.00 0.25 0.25 100 1013.3
20260504001551 78 202 3.5 6.1 0.00 0.25 0.25 100 1013.2
20260504000129 78 200 4.3 7.0 0.00 0.25 0.25 100 1012.7
20260503234553 79 211 3.5 7.8 0.00 0.25 0.25 100 1012.8
20260503233048 79 202 5.2 8.7 0.00 0.25 0.25 100 1012.7
20260503231548 79 205 1.7 5.2 0.00 0.25 0.25 100 1012.3
20260503230050 79 259 4.3 7.8 0.00 0.25 0.25 100 1012.4
20260503224551 79 209 4.3 7.0 0.00 0.25 0.25 100 1012.4
20260503223046 78 106 0.9 3.5 0.00 0.25 0.25 100 1012.2
20260503221549 78 220 2.6 4.3 0.06 0.25 0.25 100 1012.3
20260503220054 78 261 2.6 4.3 0.18 0.25 0.25 100 1012.2
20260503214547 78 219 2.6 4.3 0.24 0.25 0.25 100 1012.6
20260503213048 78 196 5.2 7.8 0.24 0.24 0.24 98 1012.7
20260503211546 78 103 0.9 8.7 0.18 0.18 0.18 98 1012.9
20260503210050 81 15 5.2 9.6 0.05 0.05 0.05 97 1012.9
20260503204548 83 317 0.9 4.3 0.00 0.00 0.00 94 1012.8
20260503203052 84 293 1.7 8.7 0.00 0.00 0.00 91 1013.0
20260503201547 85 272 3.5 8.7 0.00 0.00 0.00 89 1013.1
20260503200053 85 355 5.2 9.6 0.00 0.00 0.00 90 1013.0
20260503194553 84 203 1.7 9.6 0.00 0.00 0.00 90 1013.5
20260503193050 85 266 2.6 12.2 0.00 0.00 0.00 89 1013.7
20260503191549 86 219 1.7 7.8 0.00 0.00 0.00 89 1013.9
20260503190047 85 72 2.6 8.7 0.00 0.00 0.00 90 1014.1
20260503184605 87 241 2.6 10.4 0.00 0.00 0.00 87 1014.2
20260503183100 85 294 3.5 7.8 0.00 0.00 0.00 90 1014.5
20260503181554 84 87 1.7 7.8 0.00 0.00 0.00 92 1014.8
20260503180056 85 233 3.5 10.4 0.00 0.00 0.00 88 1014.9
20260503174552 86 169 1.7 7.0 0.00 0.00 0.00 88 1015.0
20260503173050 85 271 2.6 7.8 0.00 0.00 0.00 88 1015.2
20260503171609 86 221 2.6 7.0 0.00 0.00 0.00 86 1015.3
20260503081551 80 203 0.0 0.9 0.00 0.00 0.00 99 1012.1